| time (UTC) | temp F | wind direction | speed knots | gust knots | rain 1hr in | rain 24hr in | rain mn in | humidity % | barometer mb |
| 20260507074600 | 38 | 0 | 0.0 | 0.0 | 0.00 | 0.50 | 0.00 | 81 | 1011.1 |
| 20260507073100 | 38 | 0 | 0.0 | 0.0 | 0.00 | 0.50 | 0.00 | 81 | 1011.2 |
| 20260507071600 | 38 | 0 | 0.0 | 0.9 | 0.00 | 0.50 | 0.00 | 81 | 1011.2 |
| 20260507070107 | 39 | 0 | 0.0 | 0.0 | 0.00 | 0.50 | 0.00 | 81 | 1011.2 |
| 20260507064600 | 39 | 0 | 0.0 | 0.0 | 0.00 | 0.61 | 0.00 | 81 | 1011.0 |
| 20260507063059 | 39 | 0 | 0.0 | 0.0 | 0.00 | 0.61 | 0.00 | 81 | 1011.0 |
| 20260507061558 | 40 | 0 | 0.0 | 0.9 | 0.00 | 0.61 | 0.00 | 81 | 1011.0 |
| 20260507060110 | 40 | 0 | 0.0 | 0.9 | 0.00 | 0.61 | 0.00 | 81 | 1011.5 |
| 20260507054600 | 40 | 0 | 0.0 | 1.7 | 0.00 | 0.66 | 0.00 | 81 | 1011.6 |
| 20260507053057 | 40 | 0 | 0.0 | 2.6 | 0.00 | 0.66 | 0.00 | 81 | 1011.7 |
| 20260507051557 | 40 | 0 | 0.0 | 3.5 | 0.00 | 0.66 | 0.00 | 81 | 1011.7 |
| 20260507050100 | 40 | 288 | 0.0 | 5.2 | 0.00 | 0.66 | 0.00 | 81 | 1011.8 |
| 20260507044601 | 40 | 0 | 1.7 | 6.1 | 0.00 | 0.81 | 0.00 | 81 | 1011.8 |
| 20260507043101 | 41 | 255 | 0.0 | 5.2 | 0.00 | 0.81 | 0.00 | 81 | 1011.8 |
| 20260507041558 | 41 | 0 | 0.9 | 2.6 | 0.00 | 0.81 | 0.00 | 81 | 1011.7 |
| 20260507040103 | 41 | 253 | 0.9 | 5.2 | 0.00 | 0.81 | 0.00 | 82 | 1011.6 |
| 20260507034602 | 41 | 0 | 0.0 | 5.2 | 0.00 | 0.94 | 0.81 | 82 | 1011.5 |
| 20260507033059 | 41 | 257 | 0.9 | 4.3 | 0.00 | 0.94 | 0.81 | 82 | 1011.5 |
| 20260507031559 | 41 | 317 | 0.0 | 3.5 | 0.00 | 0.94 | 0.81 | 81 | 1011.3 |
| 20260507030059 | 41 | 0 | 0.9 | 3.5 | 0.00 | 0.94 | 0.81 | 81 | 1011.4 |
| 20260507024601 | 41 | 0 | 0.0 | 3.5 | 0.00 | 1.03 | 0.81 | 81 | 1011.3 |
| 20260507023057 | 42 | 267 | 0.9 | 4.3 | 0.00 | 1.03 | 0.81 | 81 | 1011.4 |
| 20260507021600 | 42 | 272 | 0.9 | 7.0 | 0.00 | 1.03 | 0.81 | 81 | 1011.5 |
| 20260507020057 | 42 | 0 | 0.9 | 6.1 | 0.00 | 1.03 | 0.81 | 81 | 1011.5 |
| 20260507014559 | 42 | 0 | 0.9 | 7.0 | 0.00 | 1.11 | 0.81 | 81 | 1011.5 |
| 20260507013057 | 43 | 219 | 2.6 | 7.8 | 0.00 | 1.11 | 0.81 | 81 | 1011.2 |
| 20260507011558 | 43 | 234 | 1.7 | 8.7 | 0.00 | 1.11 | 0.81 | 80 | 1011.3 |
| 20260507010114 | 43 | 264 | 0.9 | 7.0 | 0.00 | 1.11 | 0.81 | 80 | 1011.1 |
| 20260507004557 | 44 | 257 | 2.6 | 7.8 | 0.00 | 1.26 | 0.81 | 80 | 1010.9 |
| 20260507003058 | 45 | 191 | 3.5 | 10.4 | 0.00 | 1.26 | 0.81 | 80 | 1010.4 |
| 20260507001601 | 45 | 279 | 3.5 | 11.3 | 0.00 | 1.26 | 0.81 | 80 | 1010.3 |
| 20260507000104 | 47 | 273 | 1.7 | 5.2 | 0.00 | 1.26 | 0.81 | 80 | 1010.0 |
| 20260506234612 | 47 | 246 | 0.9 | 4.3 | 0.00 | 1.33 | 0.81 | 80 | 1009.7 |
| 20260506233103 | 47 | 221 | 0.0 | 2.6 | 0.00 | 1.33 | 0.81 | 80 | 1009.5 |
| 20260506231558 | 47 | 229 | 0.0 | 3.5 | 0.00 | 1.33 | 0.81 | 80 | 1009.4 |
| 20260506230056 | 47 | 200 | 0.9 | 3.5 | 0.00 | 1.33 | 0.81 | 80 | 1009.4 |
| 20260506224600 | 47 | 203 | 1.7 | 4.3 | 0.00 | 1.33 | 0.81 | 80 | 1009.2 |
| 20260506223102 | 47 | 0 | 0.9 | 3.5 | 0.00 | 1.33 | 0.81 | 80 | 1009.1 |
| 20260506221615 | 47 | 258 | 0.9 | 4.3 | 0.00 | 1.33 | 0.81 | 80 | 1009.1 |
| 20260506220057 | 47 | 183 | 0.0 | 3.5 | 0.00 | 1.33 | 0.81 | 80 | 1008.9 |
| 20260506214606 | 46 | 185 | 0.0 | 3.5 | 0.00 | 1.33 | 0.81 | 80 | 1009.1 |
| 20260506213059 | 46 | 257 | 0.0 | 4.3 | 0.00 | 1.33 | 0.81 | 80 | 1009.1 |
| 20260506211600 | 46 | 261 | 0.9 | 3.5 | 0.00 | 1.33 | 0.81 | 80 | 1009.0 |
| 20260506210100 | 46 | 206 | 1.7 | 5.2 | 0.00 | 1.33 | 0.81 | 80 | 1009.2 |
| 20260506204608 | 46 | 200 | 0.9 | 3.5 | 0.00 | 1.33 | 0.81 | 80 | 1008.9 |
| 20260506203055 | 46 | 0 | 0.0 | 4.3 | 0.00 | 1.33 | 0.81 | 81 | 1009.0 |
| 20260506201600 | 45 | 0 | 0.0 | 5.2 | 0.00 | 1.33 | 0.81 | 81 | 1009.1 |
| 20260506200107 | 45 | 0 | 0.9 | 3.5 | 0.00 | 1.33 | 0.81 | 81 | 1009.0 |
| 20260506194600 | 45 | 291 | 0.9 | 4.3 | 0.00 | 1.33 | 0.81 | 82 | 1008.9 |
| 20260506193103 | 45 | 360 | 1.7 | 4.3 | 0.00 | 1.33 | 0.81 | 82 | 1008.7 |
| 20260506191600 | 44 | 322 | 0.0 | 3.5 | 0.00 | 1.33 | 0.81 | 82 | 1008.9 |
| 20260506190101 | 44 | 315 | 0.9 | 6.1 | 0.00 | 1.33 | 0.81 | 82 | 1008.9 |
| 20260506184558 | 44 | 0 | 0.0 | 7.0 | 0.00 | 1.33 | 0.81 | 82 | 1008.9 |
| 20260506183108 | 44 | 323 | 1.7 | 7.0 | 0.00 | 1.33 | 0.81 | 82 | 1008.7 |
| 20260506181557 | 44 | 323 | 2.6 | 6.1 | 0.00 | 1.33 | 0.81 | 82 | 1008.6 |
| 20260506180058 | 44 | 338 | 0.0 | 7.0 | 0.00 | 1.33 | 0.81 | 83 | 1008.7 |
| 20260506174606 | 44 | 0 | 0.9 | 3.5 | 0.00 | 1.33 | 0.81 | 83 | 1008.7 |
| 20260506173127 | 44 | 0 | 1.7 | 4.3 | 0.00 | 1.33 | 0.81 | 83 | 1008.4 |
| 20260506171600 | 44 | 0 | 0.0 | 5.2 | 0.00 | 1.33 | 0.81 | 83 | 1008.1 |
| 20260506170057 | 45 | 311 | 1.7 | 3.5 | 0.00 | 1.33 | 0.81 | 83 | 1008.1 |
| 20260506164559 | 45 | 0 | 0.9 | 3.5 | 0.00 | 1.33 | 0.81 | 84 | 1008.0 |
| 20260506163100 | 44 | 321 | 0.9 | 3.5 | 0.00 | 1.33 | 0.81 | 83 | 1008.1 |
| 20260506161609 | 44 | 331 | 0.9 | 4.3 | 0.00 | 1.33 | 0.81 | 84 | 1008.0 |
| 20260506160107 | 44 | 360 | 0.9 | 1.7 | 0.02 | 1.33 | 0.81 | 84 | 1008.0 |
| 20260506154601 | 44 | 31 | 0.9 | 2.6 | 0.02 | 1.33 | 0.81 | 84 | 1008.0 |
| 20260506153056 | 43 | 0 | 0.0 | 4.3 | 0.03 | 1.33 | 0.81 | 84 | 1008.0 |
| 20260506151558 | 43 | 44 | 0.9 | 3.5 | 0.03 | 1.33 | 0.81 | 84 | 1008.0 |
| 20260506144611 | 43 | 34 | 0.9 | 5.2 | 0.01 | 1.31 | 0.79 | 84 | 1007.8 |
| 20260506143058 | 43 | 53 | 1.7 | 4.3 | 0.01 | 1.30 | 0.78 | 84 | 1007.5 |
| 20260506141557 | 43 | 64 | 0.9 | 4.3 | 0.01 | 1.30 | 0.78 | 84 | 1007.4 |
| 20260506140122 | 42 | 58 | 1.7 | 6.1 | 0.01 | 1.30 | 0.78 | 83 | 1007.4 |
| 20260506134557 | 42 | 63 | 2.6 | 7.8 | 0.02 | 1.30 | 0.78 | 83 | 1007.4 |
| 20260506133130 | 42 | 90 | 2.6 | 7.8 | 0.01 | 1.29 | 0.77 | 83 | 1007.5 |
| 20260506131558 | 42 | 58 | 4.3 | 8.7 | 0.02 | 1.29 | 0.77 | 83 | 1007.3 |
| 20260506130139 | 42 | 68 | 2.6 | 7.8 | 0.03 | 1.29 | 0.77 | 83 | 1007.3 |
| 20260506124556 | 42 | 63 | 0.9 | 4.3 | 0.03 | 1.28 | 0.76 | 84 | 1007.5 |
| 20260506123055 | 42 | 38 | 1.7 | 6.1 | 0.04 | 1.28 | 0.76 | 83 | 1007.6 |
| 20260506121600 | 42 | 58 | 0.0 | 4.3 | 0.04 | 1.27 | 0.75 | 83 | 1007.7 |
| 20260506120104 | 42 | 76 | 2.6 | 6.1 | 0.03 | 1.26 | 0.74 | 83 | 1007.5 |
| 20260506114559 | 42 | 41 | 3.5 | 9.6 | 0.04 | 1.25 | 0.73 | 83 | 1007.3 |
| 20260506113057 | 42 | 59 | 3.5 | 9.6 | 0.04 | 1.24 | 0.72 | 83 | 1007.0 |
| 20260506111558 | 42 | 74 | 3.5 | 8.7 | 0.06 | 1.23 | 0.71 | 83 | 1007.0 |
| 20260506110058 | 42 | 43 | 2.6 | 7.0 | 0.09 | 1.23 | 0.71 | 83 | 1007.3 |
| 20260506104605 | 42 | 17 | 1.7 | 7.8 | 0.09 | 1.21 | 0.69 | 83 | 1007.2 |
| 20260506103107 | 42 | 36 | 1.7 | 7.8 | 0.11 | 1.20 | 0.68 | 83 | 1007.3 |
| 20260506101600 | 43 | 66 | 2.6 | 6.1 | 0.11 | 1.16 | 0.65 | 83 | 1007.7 |
| 20260506100108 | 43 | 5 | 2.6 | 8.7 | 0.09 | 1.14 | 0.62 | 83 | 1007.1 |
| 20260506094605 | 43 | 69 | 3.5 | 7.0 | 0.08 | 1.12 | 0.60 | 83 | 1007.0 |
| 20260506093103 | 44 | 42 | 2.6 | 7.8 | 0.07 | 1.09 | 0.57 | 83 | 1006.9 |
| 20260506091608 | 44 | 23 | 1.7 | 7.8 | 0.05 | 1.05 | 0.54 | 83 | 1006.7 |
| 20260506090058 | 44 | 35 | 1.7 | 11.3 | 0.06 | 1.04 | 0.52 | 83 | 1006.8 |
| 20260506084601 | 44 | 355 | 2.6 | 8.7 | 0.08 | 1.04 | 0.52 | 83 | 1007.2 |
| 20260506083101 | 44 | 74 | 3.5 | 9.6 | 0.09 | 1.02 | 0.50 | 83 | 1006.8 |
| 20260506081614 | 44 | 42 | 3.5 | 8.7 | 0.13 | 1.01 | 0.49 | 82 | 1007.2 |